Lamar, CO

8:57 AM MDT on September 21, 2017 (GMT -0600)
Lamar Municipal

Weather History for KLAA - June, 2013

Change the Weather History Date:

Tuesday, June 18, 2013

  Actual Average Record
Temperature  
Mean Temperature 73 °F 72 °F  
Max Temperature 89 °F 88 °F 108 °F (2002)
Min Temperature 57 °F 57 °F 44 °F (1945)
Degree Days  
Heating Degree Days 0 0  
Month to date heating degree days 16 19  
Since 1 June heating degree days 16 19  
Since 1 July heating degree days 5506 5559  
Cooling Degree Days 8 8  
Month to date cooling degree days 182 108  
Year to date cooling degree days 323 168  
Since 1 June cooling degree days 182 108  
Growing Degree Days 22 (Base 50)    
Moisture  
Dew Point 55 °F    
Average Humidity 62    
Maximum Humidity 93    
Minimum Humidity 31    
Precipitation  
Precipitation 0.08 in 0.07 in 2.53 in (1965)
Month to date precipitation 2.18 1.49  
Year to date precipitation 2.75  
Sea Level Pressure  
Sea Level Pressure 29.91 in    
Wind  
Wind Speed 12 mph (ESE)    
Max Wind Speed 38 mph    
Max Gust Speed 56 mph    
Visibility 10 miles    
Events Rain , Thunderstorm    
T = Trace of Precipitation, MM = Missing Value Source: NWS Daily Summary

Daily Weather History Graph

Daily Weather History Graph

Search for Another Location

Airport or City:

Trip Planner

Search our weather history database for the weather conditions in past years. The results will help you decide how hot, cold, wet, or windy it might be!

Date:

Astronomy

Jun. 18, 2013 Rise Set
Actual Time 5:27 AM MDT 8:16 PM MDT
Civil Twilight 4:56 AM MDT 8:47 PM MDT
Nautical Twilight 4:16 AM MDT 9:27 PM MDT
Astronomical Twilight 3:31 AM MDT 10:12 PM MDT
Moon 3:06 PM MDT (6/18) 1:33 AM MDT (6/18)
Length of Visible Light 15h 51m
Length of Day
14h 48m
Waxing Gibbous, 71% of the Moon is Illuminated
Jun 18
Waxing Gibbous
Jun 23
Full
Jun 29
Last Quarter
Jul 8
New
Jul 15
First Quarter

Hourly Weather History & Observations

Time (MDT) Temp. Heat Index Dew Point Humidity Pressure Visibility Wind Dir Wind Speed Gust Speed Precip Events Conditions
12:53 AM 63.0 °F - 55.0 °F 75% 29.98 in 10.0 mi NNE 8.1 mph - N/A   Clear
1:53 AM 60.1 °F - 55.0 °F 83% 29.97 in 10.0 mi Calm Calm - N/A   Clear
2:53 AM 59.0 °F - 55.9 °F 90% 29.98 in 10.0 mi NNE 5.8 mph - N/A   Clear
3:53 AM 59.0 °F - 55.0 °F 87% 29.98 in 10.0 mi ENE 5.8 mph - N/A   Clear
4:53 AM 57.9 °F - 55.0 °F 90% 29.99 in 10.0 mi Calm Calm - N/A   Clear
5:53 AM 57.9 °F - 55.0 °F 90% 30.00 in 9.0 mi Calm Calm - N/A   Clear
6:53 AM 62.1 °F - 55.0 °F 78% 30.05 in 10.0 mi ENE 3.5 mph - N/A   Clear
7:53 AM 66.0 °F - 55.9 °F 70% 30.01 in 10.0 mi ENE 4.6 mph - N/A   Clear
8:53 AM 70.0 °F - 53.1 °F 55% 30.01 in 10.0 mi East 5.8 mph - N/A   Clear
9:53 AM 71.1 °F - 57.0 °F 61% 29.99 in 10.0 mi East 4.6 mph - N/A   Clear
10:53 AM 75.9 °F - 60.1 °F 58% 29.96 in 10.0 mi Variable 4.6 mph - N/A   Clear
11:53 AM 78.1 °F - 59.0 °F 52% 29.94 in 10.0 mi Variable 6.9 mph - N/A   Clear
12:53 PM 82.0 °F 82.1 °F 59.0 °F 45% 29.90 in 10.0 mi SE 12.7 mph - N/A   Clear
1:53 PM 84.0 °F 82.9 °F 55.0 °F 37% 29.87 in 10.0 mi SE 9.2 mph 19.6 mph N/A   Clear
2:53 PM 87.1 °F 85.3 °F 55.0 °F 33% 29.83 in 10.0 mi ESE 15.0 mph - N/A   Clear
3:53 PM 88.0 °F 86.1 °F 55.0 °F 32% 29.78 in 10.0 mi SE 21.9 mph 29.9 mph N/A   Clear
4:53 PM 88.0 °F 85.7 °F 53.1 °F 30% 29.76 in 10.0 mi SSE 27.6 mph 36.8 mph N/A   Scattered Clouds
5:00 PM 87.8 °F 85.7 °F 53.6 °F 31% 29.89 in 10.0 mi SSE 24.2 mph 36.8 mph N/A Thunderstorm Mostly Cloudy
5:53 PM 73.0 °F - 52.0 °F 48% 29.79 in 10.0 mi SE 28.8 mph 35.7 mph N/A Thunderstorm Partly Cloudy
6:17 PM 77.0 °F - 59.0 °F 54% 29.89 in 10.0 mi SE 20.7 mph 28.8 mph N/A   Partly Cloudy
6:53 PM 75.0 °F - 55.9 °F 51% 29.77 in 10.0 mi SSE 27.6 mph 38.0 mph N/A   Clear
7:46 PM 71.6 °F - 51.8 °F 50% 29.90 in 10.0 mi SSE 25.3 mph 31.1 mph N/A Thunderstorm Scattered Clouds
7:53 PM 71.1 °F - 53.1 °F 53% 29.78 in 10.0 mi SSE 24.2 mph 32.2 mph N/A Thunderstorm Mostly Cloudy
8:12 PM 69.8 °F - 53.6 °F 56% 29.88 in 7.0 mi SSE 21.9 mph 34.5 mph 0.00 in Rain , Thunderstorm Light Rain
8:53 PM 68.0 °F - 52.0 °F 56% 29.82 in 10.0 mi SSE 18.4 mph 27.6 mph 0.00 in Thunderstorm Partly Cloudy
9:09 PM 69.8 °F - 51.8 °F 53% 29.97 in 10.0 mi SSW 18.4 mph 29.9 mph N/A   Partly Cloudy
9:53 PM 69.1 °F - 54.0 °F 58% 29.84 in 10.0 mi NE 8.1 mph - N/A   Scattered Clouds
10:53 PM 68.0 °F - 55.9 °F 65% 29.87 in 10.0 mi NE 11.5 mph - N/A   Mostly Cloudy
11:51 PM 66.2 °F - 57.2 °F 73% 30.02 in 8.0 mi ESE 17.3 mph 25.3 mph 0.01 in Rain , Thunderstorm Light Rain
11:53 PM 66.0 °F - 57.9 °F 75% 29.87 in 7.0 mi East 18.4 mph 25.3 mph 0.01 in Rain , Thunderstorm Light Rain